This demonstration page uses our WeatherBlox Daily Observations layout. Learn more.

Left ArrowRight Arrow

39.01783, -85.05884

Hourly Observations for May 19, 2019

Temp ( °F °C ) Dew Point ( °F °C ) Humidity (%) Winds ( mph kmh ) Pressure ( in mb ) Visibility ( mi km ) Precip ( " mm )
12:52 am 00:52 Partly Cloudy 72 22.2 62 16.7 71 71 S 9 15 29.86 1011 10 16 0.00 0.00
1:52 am 01:52 Partly Cloudy 71 21.7 62 16.7 73 73 S 10 17 29.84 1011 10 16 0.00 0.00
2:52 am 02:52 Clear 71 21.7 62 16.7 73 73 S 9 15 29.82 1010 10 16 0.00 0.00
3:52 am 03:52 Clear 71 21.7 62 16.7 73 73 SSW 12 19 29.83 1010 10 16 0.00 0.00
4:52 am 04:52 Clear 69 20.6 62 16.7 78 78 S 12 19 29.83 1010 10 16 0.00 0.00
5:52 am 05:52 Partly Cloudy 70 21.1 62 16.7 76 76 S 13 20 29.83 1010 10 16 0.00 0.00
6:52 am 06:52 Mostly Cloudy 71 21.7 62 16.7 73 73 S 14 22 29.82 1010 10 16 0.00 0.00
7:52 am 07:52 Mostly Cloudy 72 22.2 62 16.7 71 71 S 17 28 29.80 1009 10 16 0.00 0.00
8:52 am 08:52 Mostly Cloudy 73 22.8 62 16.7 69 69 S 15 24 29.82 1010 10 16 0.00 0.00
9:52 am 09:52 Mostly Cloudy 75 23.9 62 16.7 64 64 SSW 16 26 29.83 1010 10 16 0.00 0.00
10:52 am 10:52 Mostly Cloudy 77 25 61 16.1 58 58 SSW 21 33 29.83 1010 10 16 0.00 0.00
11:52 am 11:52 Cloudy 77 25 59 15 54 54 SSW 16 26 29.82 1010 10 16 0.00 0.00
12:52 pm 12:52 Cloudy 77 25 58 14.4 52 52 S 14 22 29.81 1010 10 16 0.00 0.00
1:52 pm 13:52 Cloudy 74 23.3 60 15.6 62 62 SSW 16 26 29.81 1009 10 16 0.00 0.03
2:52 pm 14:52 Mostly Cloudy 77 25 58 14.4 52 52 SSW 21 33 29.79 1009 10 16 0.00 0.03
3:52 pm 15:52 Cloudy with Light Rain 69 20.6 62 16.7 78 78 SSW 17 28 29.82 1010 9 14 0.02 0.51
4:44 pm 16:44 Cloudy with Light Rain 67 19.4 63 17.2 87 87 SW 12 19 29.83 1010 3 4 0.01 0.25
4:52 pm 16:52 Cloudy with Light Rain 67 19.4 63 17.2 87 87 WSW 12 19 29.82 1010 4 6 0.02 0.51
5:52 pm 17:52 Cloudy 69 20.6 64 17.8 84 84 SW 6 9 29.81 1009 10 16 0.01 0.25
6:52 pm 18:52 Mostly Cloudy 70 21.1 65 18.3 84 84 S 9 15 29.79 1009 10 16 0.00 0.00
7:52 pm 19:52 Mostly Cloudy 71 21.7 64 17.8 79 79 SSW 12 19 29.78 1009 10 16 0.00 0.00
8:52 pm 20:52 Partly Cloudy 71 21.7 63 17.2 76 76 SSW 12 19 29.80 1009 10 16 0.00 0.00
9:52 pm 21:52 Partly Cloudy 70 21.1 61 16.1 73 73 S 14 22 29.80 1009 10 16 0.00 0.00
10:29 pm 22:29 Mostly Cloudy with Light Rain 66 18.9 60 15.6 81 81 WSW 10 17 29.85 1011 10 16 0.00 0.03
10:48 pm 22:48 Cloudy with Rain 64 18 61 16 88 88 WSW 12 19 29.86 1011 3 4 0.16 4.06
10:52 pm 22:52 Cloudy with Rain 64 17.8 60 15.6 87 87 WSW 10 17 29.85 1011 3 5 0.17 4.32
10:56 pm 22:56 Cloudy with Heavy Rain 64 17.8 60 15.6 87 87 W 9 15 29.86 1011 3 4 0.02 0.51
11:00 pm 23:00 Cloudy with Rain 64 17.8 60 15.6 87 87 W 9 15 29.86 1011 4 6 0.05 1.27
11:52 pm 23:52 Cloudy with Light Rain 64 17.8 61 16.1 90 90 SSW 9 15 29.85 1011 7 11 0.15 3.81

Powered by AerisWeather